This is the latest recevied weather packets stored in our database for station/object KD8DNS. If no packets are shown the sender has not sent any weather packets the latest 10 day(s).
| Time | Temp. | Humidity | Pressure | Rain* | Wind** | Luminosity | Snow |
|---|---|---|---|---|---|---|---|
| 1787959956 | 26.11° C | 65% | 1021.8 hPa | 0 mm | - | 18 W/m² | - |
| 1787959651 | 26.11° C | 64% | 1021.8 hPa | 0 mm | - | 22 W/m² | - |
| 1787959351 | 26.67° C | 64% | 1021.9 hPa | 0 mm | - | 24 W/m² | - |
| 1787959046 | 26.67° C | 63% | 1021.9 hPa | 0 mm | - | 28 W/m² | - |
| 1787958741 | 26.67° C | 62% | 1021.8 hPa | 0 mm | - | 35 W/m² | - |
| 1787958436 | 27.22° C | 61% | 1021.7 hPa | 0 mm | - | 29 W/m² | - |
| 1787958133 | 27.22° C | 60% | 1021.8 hPa | 0 mm | - | 33 W/m² | - |
| 1787957831 | 27.22° C | 58% | 1022 hPa | 0 mm | - | 39 W/m² | - |
| 1787957525 | 27.22° C | 59% | 1021.8 hPa | 0 mm | - | 40 W/m² | - |
| 1787957221 | 26.67° C | 60% | 1021.8 hPa | 0 mm | - | 42 W/m² | - |
| 1787956915 | 27.78° C | 60% | 1021.9 hPa | 0 mm | - | 34 W/m² | - |
| 1787956615 | 27.78° C | 57% | 1021.9 hPa | 0 mm | - | 39 W/m² | - |
| 1787956309 | 27.78° C | 57% | 1022.1 hPa | 0 mm | - | 64 W/m² | - |
| 1787956005 | 27.78° C | 58% | 1021.9 hPa | 0 mm | - | 45 W/m² | - |
| 1787955701 | 27.78° C | 57% | 1021.8 hPa | 0 mm | - | 45 W/m² | - |
| 1787955396 | 27.78° C | 55% | 1022 hPa | 0 mm | - | 39 W/m² | - |
| 1787955095 | 28.33° C | 55% | 1022.1 hPa | 0 mm | - | 49 W/m² | - |
| 1787954791 | 28.33° C | 56% | 1021.8 hPa | 0 mm | - | 57 W/m² | - |
| 1787954487 | 28.33° C | 56% | 1021.9 hPa | 0 mm | - | 61 W/m² | - |
| 1787954186 | 28.33° C | 55% | 1021.9 hPa | 0 mm | - | 58 W/m² | - |
| 1787953880 | 28.33° C | 55% | 1021.9 hPa | 0 mm | - | 61 W/m² | - |
| 1787953580 | 28.33° C | 54% | 1022 hPa | 0 mm | - | 53 W/m² | - |
| 1787953274 | 28.33° C | 55% | 1022 hPa | 0 mm | - | 177 W/m² | - |
| 1787952972 | 28.33° C | 55% | 1021.9 hPa | 0 mm | - | 55 W/m² | - |
| 1787952675 | 27.78° C | 60% | 1022.1 hPa | 0 mm | - | 129 W/m² | - |
* Rain latest hour (hover to see other rain measurements)
** Current wind speed in m/s (hover to see current wind gust speed)